Location: Newark
(25.0000°N, 73.5000°E)
Time: 20:05:41
(UTC+00:00)

X-37B - Pass Details

Date: 21 June 2021
Orbit: 383 x 392 km, 45.0° (Epoch: 01 July)

Event Time Altitude Azimuth Distance (km) Brightness Sun altitude
Rises 16:09:21 0° 250° (WSW) 2,244 4.8 -25.1°
Reaches altitude 10° 16:11:36 10° 263° (W) 1,393 3.8 -25.4°
Enters shadow 16:13:01 20° 283° (WNW) 946 3.1 -25.6°
